Year,Month,Day,Hour,Minute,Value (Times are PST for temperature in C)
2017,05,21,00,00,12.60
2017,05,21,00,01,12.60
2017,05,21,00,02,12.50
2017,05,21,00,03,12.50
2017,05,21,00,04,12.50
2017,05,21,00,05,12.50
2017,05,21,00,06,12.50
2017,05,21,00,07,12.50
2017,05,21,00,08,12.50
2017,05,21,00,09,12.40
2017,05,21,00,10,12.40
2017,05,21,00,11,12.40
2017,05,21,00,12,12.40
2017,05,21,00,13,12.30
2017,05,21,00,14,12.30
2017,05,21,00,15,12.30
2017,05,21,00,16,12.30
2017,05,21,00,17,12.30
2017,05,21,00,18,12.30
2017,05,21,00,19,12.30
2017,05,21,00,20,12.30
2017,05,21,00,21,12.30
2017,05,21,00,22,12.20
2017,05,21,00,23,12.20
2017,05,21,00,24,12.20
2017,05,21,00,25,12.20
2017,05,21,00,26,12.20
2017,05,21,00,27,12.10
2017,05,21,00,28,12.10
2017,05,21,00,29,12.10
2017,05,21,00,30,12.10
2017,05,21,00,31,12.10
2017,05,21,00,32,12.00
2017,05,21,00,33,12.00
2017,05,21,00,34,12.00
2017,05,21,00,35,12.00
2017,05,21,00,36,12.00
2017,05,21,00,37,12.00
2017,05,21,00,38,11.90
2017,05,21,00,39,11.90
2017,05,21,00,40,11.90
2017,05,21,00,41,11.90
2017,05,21,00,42,11.90
2017,05,21,00,43,11.80
2017,05,21,00,44,11.80
2017,05,21,00,45,11.80
2017,05,21,00,46,11.80
2017,05,21,00,47,11.80
2017,05,21,00,48,11.80
2017,05,21,00,49,11.80
2017,05,21,00,50,11.80
2017,05,21,00,51,11.80
2017,05,21,00,52,11.80
2017,05,21,00,53,11.70
2017,05,21,00,54,11.70
2017,05,21,00,55,11.70
2017,05,21,00,56,11.70
2017,05,21,00,57,11.70
2017,05,21,00,58,11.70
2017,05,21,00,59,11.70
2017,05,21,01,00,11.70
2017,05,21,01,01,11.80
2017,05,21,01,02,11.80
2017,05,21,01,03,11.80
2017,05,21,01,04,11.80
2017,05,21,01,05,11.80
2017,05,21,01,06,11.80
2017,05,21,01,07,11.80
2017,05,21,01,08,11.80
2017,05,21,01,09,11.80
2017,05,21,01,10,11.80
2017,05,21,01,11,11.80
2017,05,21,01,12,11.80
2017,05,21,01,13,11.80
2017,05,21,01,14,11.70
2017,05,21,01,15,11.70
2017,05,21,01,16,11.70
2017,05,21,01,17,11.70
2017,05,21,01,18,11.60
2017,05,21,01,19,11.60
2017,05,21,01,20,11.60
2017,05,21,01,21,11.60
2017,05,21,01,22,11.60
2017,05,21,01,23,11.60
2017,05,21,01,24,11.60
2017,05,21,01,25,11.60
2017,05,21,01,26,11.60
2017,05,21,01,27,11.50
2017,05,21,01,28,11.40
2017,05,21,01,29,11.40
2017,05,21,01,30,11.40
2017,05,21,01,31,11.40
2017,05,21,01,32,11.40
2017,05,21,01,33,11.40
2017,05,21,01,34,11.40
2017,05,21,01,35,11.30
2017,05,21,01,36,11.30
2017,05,21,01,37,11.30
2017,05,21,01,38,11.30
2017,05,21,01,39,11.30
2017,05,21,01,40,11.30
2017,05,21,01,41,11.20
2017,05,21,01,42,11.20
2017,05,21,01,43,11.20
2017,05,21,01,44,11.20
2017,05,21,01,45,11.20
2017,05,21,01,46,11.30
2017,05,21,01,47,11.30
2017,05,21,01,48,11.30
2017,05,21,01,49,11.20
2017,05,21,01,50,11.20
2017,05,21,01,51,11.20
2017,05,21,01,52,11.20
2017,05,21,01,53,11.20
2017,05,21,01,54,11.20
2017,05,21,01,55,11.20
2017,05,21,01,56,11.10
2017,05,21,01,57,11.10
2017,05,21,01,58,11.10
2017,05,21,01,59,11.10
2017,05,21,02,00,11.10
2017,05,21,02,01,11.10
2017,05,21,02,02,11.10
2017,05,21,02,03,11.10
2017,05,21,02,04,11.00
2017,05,21,02,05,10.90
2017,05,21,02,06,10.90
2017,05,21,02,07,10.90
2017,05,21,02,08,10.90
2017,05,21,02,09,10.90
2017,05,21,02,10,10.90
2017,05,21,02,11,10.90
2017,05,21,02,12,10.90
2017,05,21,02,13,10.90
2017,05,21,02,14,10.90
2017,05,21,02,15,10.90
2017,05,21,02,16,10.90
2017,05,21,02,17,10.90
2017,05,21,02,18,10.90
2017,05,21,02,19,10.80
2017,05,21,02,20,10.80
2017,05,21,02,21,10.80
2017,05,21,02,22,10.80
2017,05,21,02,23,10.80
2017,05,21,02,24,10.80
2017,05,21,02,25,10.80
2017,05,21,02,26,10.80
2017,05,21,02,27,10.80
2017,05,21,02,28,10.80
2017,05,21,02,29,10.70
2017,05,21,02,30,10.70
2017,05,21,02,31,10.70
2017,05,21,02,32,10.70
2017,05,21,02,33,10.70
2017,05,21,02,34,10.70
2017,05,21,02,35,10.70
2017,05,21,02,36,10.60
2017,05,21,02,37,10.60
2017,05,21,02,38,10.60
2017,05,21,02,39,10.60
2017,05,21,02,40,10.60
2017,05,21,02,41,10.60
2017,05,21,02,42,10.60
2017,05,21,02,43,10.60
2017,05,21,02,44,10.60
2017,05,21,02,45,10.60
2017,05,21,02,46,10.60
2017,05,21,02,47,10.60
2017,05,21,02,48,10.60
2017,05,21,02,49,10.60
2017,05,21,02,50,10.60
2017,05,21,02,51,10.60
2017,05,21,02,52,10.60
2017,05,21,02,53,10.60
2017,05,21,02,54,10.60
2017,05,21,02,55,10.60
2017,05,21,02,56,10.60
2017,05,21,02,57,10.60
2017,05,21,02,58,10.50
2017,05,21,02,59,10.40
2017,05,21,03,00,10.40
2017,05,21,03,01,10.40
2017,05,21,03,02,10.40
2017,05,21,03,03,10.40
2017,05,21,03,04,10.40
2017,05,21,03,05,10.40
2017,05,21,03,06,10.40
2017,05,21,03,07,10.40
2017,05,21,03,08,10.40
2017,05,21,03,09,10.40
2017,05,21,03,10,10.40
2017,05,21,03,11,10.40
2017,05,21,03,12,10.40
2017,05,21,03,13,10.40
2017,05,21,03,14,10.40
2017,05,21,03,15,10.30
2017,05,21,03,16,10.30
2017,05,21,03,17,10.40
2017,05,21,03,18,10.40
2017,05,21,03,19,10.40
2017,05,21,03,20,10.30
2017,05,21,03,21,10.30
2017,05,21,03,22,10.30
2017,05,21,03,23,10.30
2017,05,21,03,24,10.30
2017,05,21,03,25,10.30
2017,05,21,03,26,10.30
2017,05,21,03,27,10.30
2017,05,21,03,28,10.30
2017,05,21,03,29,10.30
2017,05,21,03,30,10.30
2017,05,21,03,31,10.30
2017,05,21,03,32,10.30
2017,05,21,03,33,10.30
2017,05,21,03,34,10.30
2017,05,21,03,35,10.30
2017,05,21,03,36,10.30
2017,05,21,03,37,10.30
2017,05,21,03,38,10.30
2017,05,21,03,39,10.20
2017,05,21,03,40,10.30
2017,05,21,03,41,10.30
2017,05,21,03,42,10.30
2017,05,21,03,43,10.30
2017,05,21,03,44,10.30
2017,05,21,03,45,10.30
2017,05,21,03,46,10.30
2017,05,21,03,47,10.30
2017,05,21,03,48,10.20
2017,05,21,03,49,10.20
2017,05,21,03,50,10.20
2017,05,21,03,51,10.20
2017,05,21,03,52,10.20
2017,05,21,03,53,10.10
2017,05,21,03,54,10.10
2017,05,21,03,55,10.10
2017,05,21,03,56,10.10
2017,05,21,03,57,10.10
2017,05,21,03,58,10.10
2017,05,21,03,59,10.10
2017,05,21,04,00,10.00
2017,05,21,04,01,9.90
2017,05,21,04,02,9.90
2017,05,21,04,03,9.90
2017,05,21,04,04,9.90
2017,05,21,04,05,9.90
2017,05,21,04,06,9.90
2017,05,21,04,07,9.90
2017,05,21,04,08,9.90
2017,05,21,04,09,9.90
2017,05,21,04,10,9.90
2017,05,21,04,11,9.90
2017,05,21,04,12,9.90
2017,05,21,04,13,9.90
2017,05,21,04,14,9.90
2017,05,21,04,15,9.90
2017,05,21,04,16,9.90
2017,05,21,04,17,9.90
2017,05,21,04,18,9.90
2017,05,21,04,19,9.90
2017,05,21,04,20,9.90
2017,05,21,04,21,9.90
2017,05,21,04,22,9.90
2017,05,21,04,23,9.90
2017,05,21,04,24,9.90
2017,05,21,04,25,9.90
2017,05,21,04,26,9.90
2017,05,21,04,27,9.90
2017,05,21,04,28,9.80
2017,05,21,04,29,9.80
2017,05,21,04,30,9.80
2017,05,21,04,31,9.80
2017,05,21,04,32,9.70
2017,05,21,04,33,9.70
2017,05,21,04,34,9.70
2017,05,21,04,35,9.70
2017,05,21,04,36,9.70
2017,05,21,04,37,9.70
2017,05,21,04,38,9.70
2017,05,21,04,39,9.60
2017,05,21,04,40,9.60
2017,05,21,04,41,9.60
2017,05,21,04,42,9.60
2017,05,21,04,43,9.60
2017,05,21,04,44,9.50
2017,05,21,04,45,9.50
2017,05,21,04,46,9.50
2017,05,21,04,47,9.50
2017,05,21,04,48,9.50
2017,05,21,04,49,9.50
2017,05,21,04,50,9.50
2017,05,21,04,51,9.50
2017,05,21,04,52,9.50
2017,05,21,04,53,9.50
2017,05,21,04,54,9.60
2017,05,21,04,55,9.60
2017,05,21,04,56,9.60
2017,05,21,04,57,9.60
2017,05,21,04,58,9.60
2017,05,21,04,59,9.60
2017,05,21,05,00,9.60
2017,05,21,05,01,9.70
2017,05,21,05,02,9.70
2017,05,21,05,03,9.70
2017,05,21,05,04,9.70
2017,05,21,05,05,9.60
2017,05,21,05,06,9.60
2017,05,21,05,07,9.60
2017,05,21,05,08,9.60
2017,05,21,05,09,9.50
2017,05,21,05,10,9.50
2017,05,21,05,11,9.50
2017,05,21,05,12,9.40
2017,05,21,05,13,9.40
2017,05,21,05,14,9.40
2017,05,21,05,15,9.40
2017,05,21,05,16,9.40
2017,05,21,05,17,9.30
2017,05,21,05,18,9.30
2017,05,21,05,19,9.30
2017,05,21,05,20,9.30
2017,05,21,05,21,9.30
2017,05,21,05,22,9.30
2017,05,21,05,23,9.30
2017,05,21,05,24,9.30
2017,05,21,05,25,9.20
2017,05,21,05,26,9.20
2017,05,21,05,27,9.20
2017,05,21,05,28,9.20
2017,05,21,05,29,9.20
2017,05,21,05,30,9.30
2017,05,21,05,31,9.30
2017,05,21,05,32,9.30
2017,05,21,05,33,9.30
2017,05,21,05,34,9.30
2017,05,21,05,35,9.30
2017,05,21,05,36,9.30
2017,05,21,05,37,9.30
2017,05,21,05,38,9.30
2017,05,21,05,39,9.30
2017,05,21,05,40,9.40
2017,05,21,05,41,9.40
2017,05,21,05,42,9.40
2017,05,21,05,43,9.40
2017,05,21,05,44,9.40
2017,05,21,05,45,9.40
2017,05,21,05,46,9.50
2017,05,21,05,47,9.50
2017,05,21,05,48,9.50
2017,05,21,05,49,9.60
2017,05,21,05,50,9.60
2017,05,21,05,51,9.60
2017,05,21,05,52,9.60
2017,05,21,05,53,9.60
2017,05,21,05,54,9.60
2017,05,21,05,55,9.60
2017,05,21,05,56,9.60
2017,05,21,05,57,9.60
2017,05,21,05,58,9.60
2017,05,21,05,59,9.60
2017,05,21,06,00,9.70
2017,05,21,06,01,9.70
2017,05,21,06,02,9.70
2017,05,21,06,03,9.70
2017,05,21,06,04,9.70
2017,05,21,06,05,9.80
2017,05,21,06,06,9.80
2017,05,21,06,07,9.90
2017,05,21,06,08,10.00
2017,05,21,06,09,10.10
2017,05,21,06,10,10.10
2017,05,21,06,11,10.20
2017,05,21,06,12,10.20
2017,05,21,06,13,10.30
2017,05,21,06,14,10.30
2017,05,21,06,15,10.30
2017,05,21,06,16,10.40
2017,05,21,06,17,10.40
2017,05,21,06,18,10.40
2017,05,21,06,19,10.50
2017,05,21,06,20,10.60
2017,05,21,06,21,10.60
2017,05,21,06,22,10.70
2017,05,21,06,23,10.80
2017,05,21,06,24,10.80
2017,05,21,06,25,10.80
2017,05,21,06,26,10.90
2017,05,21,06,27,10.90
2017,05,21,06,28,10.90
2017,05,21,06,29,10.90
2017,05,21,06,30,10.90
2017,05,21,06,31,10.90
2017,05,21,06,32,10.90
2017,05,21,06,33,10.90
2017,05,21,06,34,11.00
2017,05,21,06,35,11.10
2017,05,21,06,36,11.10
2017,05,21,06,37,11.20
2017,05,21,06,38,11.30
2017,05,21,06,39,11.40
2017,05,21,06,40,11.40
2017,05,21,06,41,11.50
2017,05,21,06,42,11.60
2017,05,21,06,43,11.60
2017,05,21,06,44,11.60
2017,05,21,06,45,11.70
2017,05,21,06,46,11.80
2017,05,21,06,47,11.80
2017,05,21,06,48,11.90
2017,05,21,06,49,12.00
2017,05,21,06,50,12.10
2017,05,21,06,51,12.10
2017,05,21,06,52,12.30
2017,05,21,06,53,12.30
2017,05,21,06,54,12.50
2017,05,21,06,55,12.60
2017,05,21,06,56,12.60
2017,05,21,06,57,12.70
2017,05,21,06,58,12.80
2017,05,21,06,59,12.80
2017,05,21,07,00,12.90
2017,05,21,07,01,12.90
2017,05,21,07,02,13.00
2017,05,21,07,03,13.10
2017,05,21,07,04,13.10
2017,05,21,07,05,13.20
2017,05,21,07,06,13.30
2017,05,21,07,07,13.40
2017,05,21,07,08,13.50
2017,05,21,07,09,13.50
2017,05,21,07,10,13.60
2017,05,21,07,11,13.70
2017,05,21,07,12,13.80
2017,05,21,07,13,13.90
2017,05,21,07,14,14.00
2017,05,21,07,15,14.00
2017,05,21,07,16,14.10
2017,05,21,07,17,14.20
2017,05,21,07,18,14.20
2017,05,21,07,19,14.30
2017,05,21,07,20,14.40
2017,05,21,07,21,14.40
2017,05,21,07,22,14.50
2017,05,21,07,23,14.50
2017,05,21,07,24,14.60
2017,05,21,07,25,14.60
2017,05,21,07,26,14.70
2017,05,21,07,27,14.70
2017,05,21,07,28,14.80
2017,05,21,07,29,14.80
2017,05,21,07,30,14.80
2017,05,21,07,31,14.90
2017,05,21,07,32,15.00
2017,05,21,07,33,15.00
2017,05,21,07,34,15.00
2017,05,21,07,35,15.00
2017,05,21,07,36,15.10
2017,05,21,07,37,15.10
2017,05,21,07,38,15.10
2017,05,21,07,39,15.10
2017,05,21,07,40,15.10
2017,05,21,07,41,15.10
2017,05,21,07,42,15.10
2017,05,21,07,43,15.20
2017,05,21,07,44,15.20
2017,05,21,07,45,15.20
2017,05,21,07,46,15.20
2017,05,21,07,47,15.30
2017,05,21,07,48,15.30
2017,05,21,07,49,15.30
2017,05,21,07,50,15.30
2017,05,21,07,51,15.30
2017,05,21,07,52,15.40
2017,05,21,07,53,15.40
2017,05,21,07,54,15.50
2017,05,21,07,55,15.50
2017,05,21,07,56,15.50
2017,05,21,07,57,15.60
2017,05,21,07,58,15.60
2017,05,21,07,59,15.60
2017,05,21,08,00,15.60
2017,05,21,08,01,15.60
2017,05,21,08,02,15.60
2017,05,21,08,03,15.60
2017,05,21,08,04,15.60
2017,05,21,08,05,15.50
2017,05,21,08,06,15.50
2017,05,21,08,07,15.40
2017,05,21,08,08,15.30
2017,05,21,08,09,15.30
2017,05,21,08,10,15.30
2017,05,21,08,11,15.40
2017,05,21,08,12,15.40
2017,05,21,08,13,15.40
2017,05,21,08,14,15.40
2017,05,21,08,15,15.40
2017,05,21,08,16,15.50
2017,05,21,08,17,15.50
2017,05,21,08,18,15.50
2017,05,21,08,19,15.50
2017,05,21,08,20,15.50
2017,05,21,08,21,15.60
2017,05,21,08,22,15.60
2017,05,21,08,23,15.60
2017,05,21,08,24,15.70
2017,05,21,08,25,15.80
2017,05,21,08,26,15.80
2017,05,21,08,27,15.80
2017,05,21,08,28,15.80
2017,05,21,08,29,15.80
2017,05,21,08,30,15.80
2017,05,21,08,31,15.80
2017,05,21,08,32,15.80
2017,05,21,08,33,15.80
2017,05,21,08,34,15.70
2017,05,21,08,35,15.70
2017,05,21,08,36,15.80
2017,05,21,08,37,15.80
2017,05,21,08,38,15.80
2017,05,21,08,39,15.80
2017,05,21,08,40,15.80
2017,05,21,08,41,15.90
2017,05,21,08,42,15.90
2017,05,21,08,43,16.00
2017,05,21,08,44,16.10
2017,05,21,08,45,16.10
2017,05,21,08,46,16.10
2017,05,21,08,47,16.10
2017,05,21,08,48,16.20
2017,05,21,08,49,16.20
2017,05,21,08,50,16.20
2017,05,21,08,51,16.20
2017,05,21,08,52,16.20
2017,05,21,08,53,16.30
2017,05,21,08,54,16.30
2017,05,21,08,55,16.30
2017,05,21,08,56,16.30
2017,05,21,08,57,16.30
2017,05,21,08,58,16.30
2017,05,21,08,59,16.40
2017,05,21,09,00,16.40
2017,05,21,09,01,16.40
2017,05,21,09,02,16.40
2017,05,21,09,03,16.40
2017,05,21,09,04,16.50
2017,05,21,09,05,16.60
2017,05,21,09,06,16.60
2017,05,21,09,07,16.70
2017,05,21,09,08,16.70
2017,05,21,09,09,16.70
2017,05,21,09,10,16.80
2017,05,21,09,11,16.90
2017,05,21,09,12,16.90
2017,05,21,09,13,17.00
2017,05,21,09,14,17.00
2017,05,21,09,15,17.00
2017,05,21,09,16,17.00
2017,05,21,09,17,17.00
2017,05,21,09,18,17.00
2017,05,21,09,19,16.90
2017,05,21,09,20,16.90
2017,05,21,09,21,16.90
2017,05,21,09,22,16.90
2017,05,21,09,23,17.00
2017,05,21,09,24,17.00
2017,05,21,09,25,17.00
2017,05,21,09,26,17.10
2017,05,21,09,27,17.10
2017,05,21,09,28,17.20
2017,05,21,09,29,17.20
2017,05,21,09,30,17.20
2017,05,21,09,31,17.30
2017,05,21,09,32,17.30
2017,05,21,09,33,17.30
2017,05,21,09,34,17.30
2017,05,21,09,35,17.30
2017,05,21,09,36,17.30
2017,05,21,09,37,17.30
2017,05,21,09,38,17.30
2017,05,21,09,39,17.30
2017,05,21,09,40,17.30
2017,05,21,09,41,17.30
2017,05,21,09,42,17.30
2017,05,21,09,43,17.30
2017,05,21,09,44,17.30
2017,05,21,09,45,17.30
2017,05,21,09,46,17.40
2017,05,21,09,47,17.50
2017,05,21,09,48,17.50
2017,05,21,09,49,17.60
2017,05,21,09,50,17.60
2017,05,21,09,51,17.60
2017,05,21,09,52,17.60
2017,05,21,09,53,17.70
2017,05,21,09,54,17.70
2017,05,21,09,55,17.70
2017,05,21,09,56,17.80
2017,05,21,09,57,17.80
2017,05,21,09,58,17.80
2017,05,21,09,59,17.80
2017,05,21,10,00,17.80
2017,05,21,10,01,17.80
2017,05,21,10,02,17.80
2017,05,21,10,03,17.90
2017,05,21,10,04,17.80
2017,05,21,10,05,17.80
2017,05,21,10,06,17.80
2017,05,21,10,07,17.70
2017,05,21,10,08,17.70
2017,05,21,10,09,17.60
2017,05,21,10,10,17.70
2017,05,21,10,11,17.70
2017,05,21,10,12,17.70
2017,05,21,10,13,17.80
2017,05,21,10,14,17.80
2017,05,21,10,15,17.90
2017,05,21,10,16,17.90
2017,05,21,10,17,17.80
2017,05,21,10,18,17.80
2017,05,21,10,19,17.80
2017,05,21,10,20,17.80
2017,05,21,10,21,17.80
2017,05,21,10,22,17.80
2017,05,21,10,23,17.80
2017,05,21,10,24,17.80
2017,05,21,10,25,17.90
2017,05,21,10,26,17.90
2017,05,21,10,27,18.00
2017,05,21,10,28,18.10
2017,05,21,10,29,18.10
2017,05,21,10,30,18.20
2017,05,21,10,31,18.20
2017,05,21,10,32,18.20
2017,05,21,10,33,18.30
2017,05,21,10,34,18.30
2017,05,21,10,35,18.30
2017,05,21,10,36,18.40
2017,05,21,10,37,18.40
2017,05,21,10,38,18.40
2017,05,21,10,39,18.40
2017,05,21,10,40,18.50
2017,05,21,10,41,18.50
2017,05,21,10,42,18.60
2017,05,21,10,43,18.60
2017,05,21,10,44,18.60
2017,05,21,10,45,18.70
2017,05,21,10,46,18.70
2017,05,21,10,47,18.70
2017,05,21,10,48,18.70
2017,05,21,10,49,18.70
2017,05,21,10,50,18.70
2017,05,21,10,51,18.70
2017,05,21,10,52,18.70
2017,05,21,10,53,18.70
2017,05,21,10,54,18.80
2017,05,21,10,55,18.80
2017,05,21,10,56,18.80
2017,05,21,10,57,18.70
2017,05,21,10,58,18.70
2017,05,21,10,59,18.70
2017,05,21,11,00,18.70
2017,05,21,11,01,18.80
2017,05,21,11,02,18.80
2017,05,21,11,03,18.80
2017,05,21,11,04,18.90
2017,05,21,11,05,18.90
2017,05,21,11,06,19.00
2017,05,21,11,07,19.10
2017,05,21,11,08,19.10
2017,05,21,11,09,19.10
2017,05,21,11,10,19.20
2017,05,21,11,11,19.20
2017,05,21,11,12,19.20
2017,05,21,11,13,19.20
2017,05,21,11,14,19.20
2017,05,21,11,15,19.20
2017,05,21,11,16,19.20
2017,05,21,11,17,19.30
2017,05,21,11,18,19.30
2017,05,21,11,19,19.40
2017,05,21,11,20,19.40
2017,05,21,11,21,19.40
2017,05,21,11,22,19.40
2017,05,21,11,23,19.50
2017,05,21,11,24,19.50
2017,05,21,11,25,19.60
2017,05,21,11,26,19.70
2017,05,21,11,27,19.70
2017,05,21,11,28,19.80
2017,05,21,11,29,19.80
2017,05,21,11,30,19.80
2017,05,21,11,31,19.70
2017,05,21,11,32,19.70
2017,05,21,11,33,19.70
2017,05,21,11,34,19.70
2017,05,21,11,35,19.70
2017,05,21,11,36,19.70
2017,05,21,11,37,19.80
2017,05,21,11,38,19.90
2017,05,21,11,39,19.90
2017,05,21,11,40,19.90
2017,05,21,11,41,19.90
2017,05,21,11,42,20.10
2017,05,21,11,43,20.10
2017,05,21,11,44,20.10
2017,05,21,11,45,20.10
2017,05,21,11,46,20.10
2017,05,21,11,47,19.90
2017,05,21,11,48,19.90
2017,05,21,11,49,19.90
2017,05,21,11,50,19.90
2017,05,21,11,51,19.90
2017,05,21,11,52,20.00
2017,05,21,11,53,20.00
2017,05,21,11,54,19.90
2017,05,21,11,55,19.90
2017,05,21,11,56,19.90
2017,05,21,11,57,19.90
2017,05,21,11,58,20.10
2017,05,21,11,59,20.10
2017,05,21,12,00,20.20
2017,05,21,12,01,20.20
2017,05,21,12,02,20.30
2017,05,21,12,03,20.30
2017,05,21,12,04,20.40
2017,05,21,12,05,20.40
2017,05,21,12,06,20.50
2017,05,21,12,07,20.50
2017,05,21,12,08,20.60
2017,05,21,12,09,20.70
2017,05,21,12,10,20.70
2017,05,21,12,11,20.80
2017,05,21,12,12,20.80
2017,05,21,12,13,20.80
2017,05,21,12,14,20.90
2017,05,21,12,15,20.90
2017,05,21,12,16,21.00
2017,05,21,12,17,21.00
2017,05,21,12,18,21.00
2017,05,21,12,19,21.10
2017,05,21,12,20,21.10
2017,05,21,12,21,21.10
2017,05,21,12,22,21.10
2017,05,21,12,23,21.00
2017,05,21,12,24,21.00
2017,05,21,12,25,21.00
2017,05,21,12,26,21.00
2017,05,21,12,27,21.10
2017,05,21,12,28,21.10
2017,05,21,12,29,21.10
2017,05,21,12,30,21.10
2017,05,21,12,31,21.20
2017,05,21,12,32,21.30
2017,05,21,12,33,21.30
2017,05,21,12,34,21.30
2017,05,21,12,35,21.30
2017,05,21,12,36,21.30
2017,05,21,12,37,21.40
2017,05,21,12,38,21.50
2017,05,21,12,39,21.60
2017,05,21,12,40,21.60
2017,05,21,12,41,21.70
2017,05,21,12,42,21.70
2017,05,21,12,43,21.80
2017,05,21,12,44,21.80
2017,05,21,12,45,21.80
2017,05,21,12,46,21.90
2017,05,21,12,47,21.90
2017,05,21,12,48,22.00
2017,05,21,12,49,22.00
2017,05,21,12,50,22.10
2017,05,21,12,51,22.10
2017,05,21,12,52,22.10
2017,05,21,12,53,22.10
2017,05,21,12,54,22.10
2017,05,21,12,55,22.00
2017,05,21,12,56,22.00
2017,05,21,12,57,21.90
2017,05,21,12,58,22.00
2017,05,21,12,59,22.00
2017,05,21,13,00,22.00
2017,05,21,13,01,22.00
2017,05,21,13,02,22.00
2017,05,21,13,03,22.00
2017,05,21,13,04,22.00
2017,05,21,13,05,22.00
2017,05,21,13,06,21.90
2017,05,21,13,07,21.90
2017,05,21,13,08,21.90
2017,05,21,13,09,21.80
2017,05,21,13,10,21.70
2017,05,21,13,11,21.60
2017,05,21,13,12,21.60
2017,05,21,13,13,21.60
2017,05,21,13,14,21.60
2017,05,21,13,15,21.60
2017,05,21,13,16,21.60
2017,05,21,13,17,21.60
2017,05,21,13,18,21.50
2017,05,21,13,19,21.50
2017,05,21,13,20,21.60
2017,05,21,13,21,21.60
2017,05,21,13,22,21.60
2017,05,21,13,23,21.70
2017,05,21,13,24,21.80
2017,05,21,13,25,22.00
2017,05,21,13,26,22.10
2017,05,21,13,27,22.20
2017,05,21,13,28,22.20
2017,05,21,13,29,22.20
2017,05,21,13,30,22.10
2017,05,21,13,31,22.10
2017,05,21,13,32,22.10
2017,05,21,13,33,22.20
2017,05,21,13,34,22.20
2017,05,21,13,35,22.30
2017,05,21,13,36,22.30
2017,05,21,13,37,22.30
2017,05,21,13,38,22.40
2017,05,21,13,39,22.40
2017,05,21,13,40,22.50
2017,05,21,13,41,22.50
2017,05,21,13,42,22.50
2017,05,21,13,43,22.60
2017,05,21,13,44,22.60
2017,05,21,13,45,22.70
2017,05,21,13,46,22.70
2017,05,21,13,47,22.70
2017,05,21,13,48,22.70
2017,05,21,13,49,22.70
2017,05,21,13,50,22.60
2017,05,21,13,51,22.60
2017,05,21,13,52,22.60
2017,05,21,13,53,22.60
2017,05,21,13,54,22.70
2017,05,21,13,55,22.70
2017,05,21,13,56,22.80
2017,05,21,13,57,22.80
2017,05,21,13,58,22.90
2017,05,21,13,59,22.90
2017,05,21,14,00,22.80
2017,05,21,14,01,22.70
2017,05,21,14,02,22.60
2017,05,21,14,03,22.50
2017,05,21,14,04,22.40
2017,05,21,14,05,22.40
2017,05,21,14,06,22.30
2017,05,21,14,07,22.30
2017,05,21,14,08,22.40
2017,05,21,14,09,22.40
2017,05,21,14,10,22.40
2017,05,21,14,11,22.50
2017,05,21,14,12,22.50
2017,05,21,14,13,22.50
2017,05,21,14,14,22.50
2017,05,21,14,15,22.50
2017,05,21,14,16,22.50
2017,05,21,14,17,22.60
2017,05,21,14,18,22.70
2017,05,21,14,19,22.80
2017,05,21,14,20,22.80
2017,05,21,14,21,22.90
2017,05,21,14,22,23.00
2017,05,21,14,23,23.10
2017,05,21,14,24,23.20
2017,05,21,14,25,23.10
2017,05,21,14,26,23.00
2017,05,21,14,27,22.90
2017,05,21,14,28,22.80
2017,05,21,14,29,22.80
2017,05,21,14,30,22.70
2017,05,21,14,31,22.70
2017,05,21,14,32,22.80
2017,05,21,14,33,22.80
2017,05,21,14,34,22.90
2017,05,21,14,35,22.90
2017,05,21,14,36,23.00
2017,05,21,14,37,23.10
2017,05,21,14,38,23.10
2017,05,21,14,39,23.10
2017,05,21,14,40,23.10
2017,05,21,14,41,22.90
2017,05,21,14,42,22.90
2017,05,21,14,43,22.80
2017,05,21,14,44,22.80
2017,05,21,14,45,22.80
2017,05,21,14,46,22.80
2017,05,21,14,47,22.70
2017,05,21,14,48,22.70
2017,05,21,14,49,22.70
2017,05,21,14,50,22.70
2017,05,21,14,51,22.70
2017,05,21,14,52,22.80
2017,05,21,14,53,22.80
2017,05,21,14,54,22.90
2017,05,21,14,55,22.90
2017,05,21,14,56,22.90
2017,05,21,14,57,23.00
2017,05,21,14,58,23.10
2017,05,21,14,59,23.10
2017,05,21,15,00,23.10
2017,05,21,15,01,23.10
2017,05,21,15,02,23.10
2017,05,21,15,03,23.10
2017,05,21,15,04,23.10
2017,05,21,15,05,23.10
2017,05,21,15,06,23.10
2017,05,21,15,07,23.10
2017,05,21,15,08,23.20
2017,05,21,15,09,23.20
2017,05,21,15,10,23.20
2017,05,21,15,11,23.20
2017,05,21,15,12,23.20
2017,05,21,15,13,23.30
2017,05,21,15,14,23.30
2017,05,21,15,15,23.30
2017,05,21,15,16,23.30
2017,05,21,15,17,23.30
2017,05,21,15,18,23.30
2017,05,21,15,19,23.30
2017,05,21,15,20,23.30
2017,05,21,15,21,23.30
2017,05,21,15,22,23.30
2017,05,21,15,23,23.30
2017,05,21,15,24,23.30
2017,05,21,15,25,23.30
2017,05,21,15,26,23.30
2017,05,21,15,27,23.30
2017,05,21,15,28,23.30
2017,05,21,15,29,23.40
2017,05,21,15,30,23.40
2017,05,21,15,31,23.50
2017,05,21,15,32,23.60
2017,05,21,15,33,23.70
2017,05,21,15,34,23.70
2017,05,21,15,35,23.70
2017,05,21,15,36,23.70
2017,05,21,15,37,23.80
2017,05,21,15,38,24.00
2017,05,21,15,39,24.10
2017,05,21,15,40,24.10
2017,05,21,15,41,24.10
2017,05,21,15,42,24.10
2017,05,21,15,43,24.10
2017,05,21,15,44,24.10
2017,05,21,15,45,24.00
2017,05,21,15,46,23.90
2017,05,21,15,47,23.80
2017,05,21,15,48,23.70
2017,05,21,15,49,23.60
2017,05,21,15,50,23.50
2017,05,21,15,51,23.30
2017,05,21,15,52,23.30
2017,05,21,15,53,23.30
2017,05,21,15,54,23.30
2017,05,21,15,55,23.30
2017,05,21,15,56,23.30
2017,05,21,15,57,23.30
2017,05,21,15,58,23.40
2017,05,21,15,59,23.40
2017,05,21,16,00,23.50
2017,05,21,16,01,23.60
2017,05,21,16,02,23.60
2017,05,21,16,03,23.70
2017,05,21,16,04,23.60
2017,05,21,16,05,23.50
2017,05,21,16,06,23.40
2017,05,21,16,07,23.40
2017,05,21,16,08,23.40
2017,05,21,16,09,23.30
2017,05,21,16,10,23.30
2017,05,21,16,11,23.30
2017,05,21,16,12,23.20
2017,05,21,16,13,23.20
2017,05,21,16,14,23.20
2017,05,21,16,15,23.20
2017,05,21,16,16,23.20
2017,05,21,16,17,23.20
2017,05,21,16,18,23.30
2017,05,21,16,19,23.30
2017,05,21,16,20,23.30
2017,05,21,16,21,23.30
2017,05,21,16,22,23.40
2017,05,21,16,23,23.50
2017,05,21,16,24,23.60
2017,05,21,16,25,23.60
2017,05,21,16,26,23.70
2017,05,21,16,27,23.70
2017,05,21,16,28,23.70
2017,05,21,16,29,23.70
2017,05,21,16,30,23.70
2017,05,21,16,31,23.70
2017,05,21,16,32,23.70
2017,05,21,16,33,23.70
2017,05,21,16,34,23.70
2017,05,21,16,35,23.60
2017,05,21,16,36,23.60
2017,05,21,16,37,23.60
2017,05,21,16,38,23.60
2017,05,21,16,39,23.50
2017,05,21,16,40,23.40
2017,05,21,16,41,23.40
2017,05,21,16,42,23.30
2017,05,21,16,43,23.30
2017,05,21,16,44,23.30
2017,05,21,16,45,23.20
2017,05,21,16,46,23.20
2017,05,21,16,47,23.20
2017,05,21,16,48,23.30
2017,05,21,16,49,23.30
2017,05,21,16,50,23.40
2017,05,21,16,51,23.50
2017,05,21,16,52,23.60
2017,05,21,16,53,23.60
2017,05,21,16,54,23.60
2017,05,21,16,55,23.50
2017,05,21,16,56,23.40
2017,05,21,16,57,23.30
2017,05,21,16,58,23.20
2017,05,21,16,59,23.10
2017,05,21,17,00,23.10
2017,05,21,17,01,23.10
2017,05,21,17,02,23.10
2017,05,21,17,03,23.10
2017,05,21,17,04,23.00
2017,05,21,17,05,22.90
2017,05,21,17,06,22.90
2017,05,21,17,07,22.80
2017,05,21,17,08,22.80
2017,05,21,17,09,22.80
2017,05,21,17,10,22.80
2017,05,21,17,11,22.80
2017,05,21,17,12,22.80
2017,05,21,17,13,22.80
2017,05,21,17,14,22.80
2017,05,21,17,15,22.80
2017,05,21,17,16,22.70
2017,05,21,17,17,22.60
2017,05,21,17,18,22.60
2017,05,21,17,19,22.50
2017,05,21,17,20,22.50
2017,05,21,17,21,22.50
2017,05,21,17,22,22.50
2017,05,21,17,23,22.50
2017,05,21,17,24,22.50